CW2857 Weather Reports


Display with metric or nautical units.
time (UTC)temp
F
wind
direction
speed
MPH
gust
MPH
rain 1hr
in
rain 24hr
in
rain mn
in
humidity
%
barometer
mb
20260509062543 68 269 5.0 9.0 0.00 0.00 0.00 27 1010.2
20260509062043 69 265 6.0 10.0 0.00 0.00 0.00 27 1010.1
20260509061545 69 260 6.0 10.0 0.00 0.00 0.00 26 1010.1
20260509061041 69 252 5.0 9.0 0.00 0.00 0.00 27 1010.0
20260509060542 70 250 6.0 9.0 0.00 0.00 0.00 26 1010.1
20260509060042 70 252 4.0 8.0 0.00 0.00 0.00 26 1010.1
20260509055540 69 237 4.0 9.0 0.00 0.00 0.00 25 1010.1
20260509055040 69 245 4.0 9.0 0.00 0.00 0.00 26 1010.1
20260509054556 68 228 2.0 5.0 0.00 0.00 0.00 25 1010.2
20260509054040 68 246 3.0 6.0 0.00 0.00 0.00 26 1010.2
20260509053540 69 266 2.0 8.0 0.00 0.00 0.00 25 1010.2
20260509053134 70 270 5.0 11.0 0.00 0.00 0.00 24 1010.2
20260509052543 70 278 5.0 11.0 0.00 0.00 0.00 24 1010.2
20260509052039 70 268 4.0 10.0 0.00 0.00 0.00 24 1010.1
20260509051546 71 304 7.0 10.0 0.00 0.00 0.00 24 1010.2
20260509051039 70 286 6.0 9.0 0.00 0.00 0.00 23 1010.0
20260509050539 70 286 4.0 8.0 0.00 0.00 0.00 23 1009.9
20260509050045 70 266 4.0 7.0 0.00 0.00 0.00 23 1009.9
20260509045538 70 286 2.0 6.0 0.00 0.00 0.00 23 1009.8
20260509045037 70 288 3.0 7.0 0.00 0.00 0.00 23 1009.8
20260509044537 71 295 2.0 6.0 0.00 0.00 0.00 22 1009.8
20260509044037 72 288 2.0 8.0 0.00 0.00 0.00 21 1009.7
20260509043538 71 263 3.0 8.0 0.00 0.00 0.00 21 1009.6
20260509043037 71 279 3.0 6.0 0.00 0.00 0.00 21 1009.4
20260509042536 71 210 3.0 6.0 0.00 0.00 0.00 20 1009.4
20260509042036 71 237 2.0 5.0 0.00 0.00 0.00 20 1009.4
20260509041536 72 232 2.0 4.0 0.00 0.00 0.00 19 1009.3
20260509041035 72 219 2.0 5.0 0.00 0.00 0.00 19 1009.3
20260509040536 72 219 3.0 7.0 0.00 0.00 0.00 19 1009.2
20260509040036 73 231 2.0 10.0 0.00 0.00 0.00 18 1009.2
20260509035536 74 200 2.0 13.0 0.00 0.00 0.00 17 1009.1
20260509035036 74 275 9.0 13.0 0.00 0.00 0.00 18 1009.0
20260509034535 73 256 6.0 11.0 0.00 0.00 0.00 18 1009.1
20260509034035 73 218 7.0 11.0 0.00 0.00 0.00 17 1009.0
20260509033536 73 246 3.0 7.0 0.00 0.00 0.00 16 1009.0
20260509033035 73 274 3.0 8.0 0.00 0.00 0.00 16 1008.9
20260509032535 73 291 5.0 8.0 0.00 0.00 0.00 16 1008.8
20260509032034 73 281 4.0 11.0 0.00 0.00 0.00 16 1008.8
20260509031534 73 269 3.0 11.0 0.00 0.00 0.00 16 1008.8
20260509031034 73 261 3.0 9.0 0.00 0.00 0.00 16 1008.7
20260509030534 74 277 3.0 9.0 0.00 0.00 0.00 15 1008.6
20260509030038 74 304 4.0 9.0 0.00 0.00 0.00 15 1008.5
20260509025536 75 288 4.0 10.0 0.00 0.00 0.00 15 1008.5
20260509025033 75 299 4.0 10.0 0.00 0.00 0.00 15 1008.5
20260509024536 76 294 4.0 13.0 0.00 0.00 0.00 15 1008.4
20260509024033 76 339 5.0 13.0 0.00 0.00 0.00 15 1008.3
20260509023534 76 326 6.0 12.0 0.00 0.00 0.00 15 1008.3
20260509023043 76 324 5.0 11.0 0.00 0.00 0.00 15 1008.3
20260509022536 77 333 5.0 14.0 0.00 0.00 0.00 15 1008.2
20260509022034 77 294 7.0 14.0 0.00 0.00 0.00 15 1008.1
20260509021532 78 296 6.0 12.0 0.00 0.00 0.00 15 1008.1
20260509021033 78 313 5.0 12.0 0.00 0.00 0.00 15 1008.1
20260509020531 79 326 6.0 12.0 0.00 0.00 0.00 15 1008.1
20260509020033 79 313 6.0 15.0 0.00 0.00 0.00 15 1008.0
20260509015532 79 310 7.0 15.0 0.00 0.00 0.00 15 1008.0
20260509015031 79 290 7.0 14.0 0.00 0.00 0.00 15 1007.9
20260509014537 80 321 6.0 13.0 0.00 0.00 0.00 15 1007.9
20260509014032 80 5 6.0 12.0 0.00 0.00 0.00 15 1008.0
20260509013532 80 334 7.0 15.0 0.00 0.00 0.00 15 1007.9
20260509013031 80 280 8.0 15.0 0.00 0.00 0.00 15 1007.8
20260509012530 81 360 6.0 14.0 0.00 0.00 0.00 15 1007.9
20260509012030 81 360 8.0 13.0 0.00 0.00 0.00 15 1007.9
20260509011533 81 320 7.0 16.0 0.00 0.00 0.00 15 1007.8
20260509011029 81 325 8.0 18.0 0.00 0.00 0.00 14 1007.9
20260509010528 82 299 7.0 18.0 0.00 0.00 0.00 14 1008.0
20260509010029 82 329 4.0 14.0 0.00 0.00 0.00 13 1007.9
20260509005527 83 348 8.0 14.0 0.00 0.00 0.00 13 1008.0
20260509005027 83 344 5.0 12.0 0.00 0.00 0.00 13 1007.9
20260509004531 83 12 5.0 15.0 0.00 0.00 0.00 12 1008.0
20260509004027 83 5 8.0 15.0 0.00 0.00 0.00 12 1007.9
20260509003526 84 360 7.0 12.0 0.00 0.00 0.00 12 1008.1
20260509003042 84 11 5.0 12.0 0.00 0.00 0.00 12 1008.1
20260509002526 83 26 5.0 13.0 0.00 0.00 0.00 12 1008.1
20260509002026 83 342 5.0 16.0 0.00 0.00 0.00 12 1008.1
20260509001526 82 5 6.0 19.0 0.00 0.00 0.00 12 1008.2
20260509001026 83 304 7.0 12.0 0.00 0.00 0.00 11 1008.1
20260509000529 82 346 7.0 17.0 0.00 0.00 0.00 12 1008.2
20260509000024 84 288 10.0 17.0 0.00 0.00 0.00 11 1008.3
20260508235524 84 314 5.0 13.0 0.00 0.00 0.00 11 1008.3
20260508235024 83 23 9.0 17.0 0.00 0.00 0.00 11 1008.3
20260508234527 83 355 10.0 16.0 0.00 0.00 0.00 11 1008.2
20260508234022 83 263 6.0 18.0 0.00 0.00 0.00 11 1008.3
20260508233522 83 259 8.0 18.0 0.00 0.00 0.00 11 1008.4
20260508233023 83 257 4.0 16.0 0.00 0.00 0.00 10 1008.4
20260508232521 83 271 10.0 14.0 0.00 0.00 0.00 10 1008.5
20260508232021 84 290 5.0 16.0 0.00 0.00 0.00 9 1008.4
20260508231521 83 273 8.0 17.0 0.00 0.00 0.00 9 1008.6
20260508231022 82 278 9.0 20.0 0.00 0.00 0.00 8 1008.5
20260508230520 84 287 10.0 20.0 0.00 0.00 0.00 8 1008.5
20260508230020 86 294 2.0 13.0 0.00 0.00 0.00 9 1008.6
20260508225524 86 47 6.0 13.0 0.00 0.00 0.00 10 1008.8
20260508225017 86 355 2.0 11.0 0.00 0.00 0.00 9 1008.8
20260508224516 85 338 1.0 11.0 0.00 0.00 0.00 10 1008.9
20260508224016 84 344 5.0 13.0 0.00 0.00 0.00 10 1009.1
20260508223519 84 355 8.0 15.0 0.00 0.00 0.00 9 1009.2
20260508223018 84 307 8.0 15.0 0.00 0.00 0.00 10 1009.1
20260508222514 85 317 5.0 16.0 0.00 0.00 0.00 10 1009.1
20260508222015 85 313 10.0 16.0 0.00 0.00 0.00 10 1009.1
20260508221520 85 346 5.0 13.0 0.00 0.00 0.00 11 1009.2
20260508221013 85 330 3.0 13.0 0.00 0.00 0.00 11 1009.2
20260508220516 85 355 6.0 14.0 0.00 0.00 0.00 11 1009.4
20260508220016 84 290 5.0 15.0 0.00 0.00 0.00 11 1009.4
20260508215512 84 342 2.0 15.0 0.00 0.00 0.00 12 1009.4
20260508215011 85 331 7.0 14.0 0.00 0.00 0.00 14 1009.5
20260508214511 85 325 6.0 14.0 0.00 0.00 0.00 11 1009.6
20260508214010 84 283 9.0 15.0 0.00 0.00 0.00 11 1009.6
20260508213510 85 5 8.0 15.0 0.00 0.00 0.00 11 1009.6
20260508213010 86 64 5.0 12.0 0.00 0.00 0.00 11 1009.7
20260508212514 86 319 6.0 13.0 0.00 0.00 0.00 10 1009.7
20260508212010 87 348 6.0 12.0 0.00 0.00 0.00 10 1009.6
20260508211507 85 11 3.0 11.0 0.00 0.00 0.00 10 1009.7
20260508211007 83 327 3.0 11.0 0.00 0.00 0.00 11 1009.7
20260508210506 82 254 3.0 14.0 0.00 0.00 0.00 10 1009.8
20260508210006 82 247 7.0 16.0 0.00 0.00 0.00 8 1009.9
20260508205505 83 178 5.0 16.0 0.00 0.00 0.00 8 1009.9
20260508205004 84 283 1.0 5.0 0.00 0.00 0.00 7 1010.0
20260508204504 81 5 2.0 14.0 0.00 0.00 0.00 8 1010.0
20260508204002 80 194 4.0 14.0 0.00 0.00 0.00 7 1010.1
20260508203503 80 254 3.0 9.0 0.00 0.00 0.00 8 1010.2
20260508203002 80 183 5.0 12.0 0.00 0.00 0.00 8 1010.3
20260508202502 80 237 2.0 12.0 0.00 0.00 0.00 9 1010.3
20260508202100 80 246 4.0 12.0 0.00 0.00 0.00 8 1010.3
20260508202001 81 214 6.0 12.0 0.00 0.00 0.00 8 1010.3
20260508201501 81 279 6.0 17.0 0.00 0.00 0.00 9 1010.4
20260508201100 82 227 8.0 17.0 0.00 0.00 0.00 8 1010.4
20260508200600 82 336 3.0 13.0 0.00 0.00 0.00 8 1010.3
20260508200108 82 223 5.0 13.0 0.00 0.00 0.00 9 1010.5
20260508195600 81 335 4.0 7.0 0.00 0.00 0.00 12 1010.4
20260508195059 79 25 1.0 12.0 0.00 0.00 0.00 16 1010.5
20260508194600 80 355 1.0 8.0 0.00 0.00 0.00 16 1010.5
20260508194102 80 5 3.0 6.0 0.00 0.00 0.00 15 1010.6
20260508193557 79 328 2.0 10.0 0.00 0.00 0.00 16 1010.6
20260508193109 80 331 3.0 10.0 0.00 0.00 0.00 11 1010.7
20260508192559 79 350 3.0 12.0 0.00 0.00 0.00 17 1010.8
20260508192056 79 294 5.0 12.0 0.00 0.00 0.00 16 1010.8
20260508191557 80 281 2.0 9.0 0.00 0.00 0.00 15 1010.8
20260508191056 81 360 1.0 9.0 0.00 0.00 0.00 16 1010.9
20260508190556 81 333 3.0 11.0 0.00 0.00 0.00 16 1011.0
20260508190058 80 348 3.0 11.0 0.00 0.00 0.00 16 1011.1
20260508185555 78 355 4.0 9.0 0.00 0.00 0.00 18 1011.2
20260508185055 79 202 4.0 10.0 0.00 0.00 0.00 17 1011.3
20260508184603 81 329 5.0 10.0 0.00 0.00 0.00 16 1011.3
20260508184053 80 19 3.0 10.0 0.00 0.00 0.00 17 1011.5
20260508183552 78 350 4.0 10.0 0.00 0.00 0.00 18 1011.6
20260508183103 78 284 4.0 9.0 0.00 0.00 0.00 17 1011.5
20260508182551 78 346 3.0 10.0 0.00 0.00 0.00 17 1011.5
20260508182050 77 265 5.0 11.0 0.00 0.00 0.00 16 1011.6
20260508181550 77 284 4.0 11.0 0.00 0.00 0.00 17 1011.7
20260508181050 76 329 2.0 10.0 0.00 0.00 0.00 19 1011.7
20260508180550 77 235 4.0 9.0 0.00 0.00 0.00 17 1011.7
20260508180050 77 5 3.0 10.0 0.00 0.00 0.00 18 1011.8
20260508175549 77 315 3.0 10.0 0.00 0.00 0.00 17 1011.9
20260508175048 77 328 3.0 8.0 0.00 0.00 0.00 17 1011.9
20260508174559 76 88 1.0 5.0 0.00 0.00 0.00 17 1011.8
20260508174045 74 10 1.0 9.0 0.00 0.00 0.00 19 1011.9
20260508173544 73 269 4.0 9.0 0.00 0.00 0.00 19 1011.9
20260508173043 72 237 2.0 10.0 0.00 0.00 0.00 19 1011.9
20260508172545 72 203 2.0 10.0 0.00 0.00 0.00 19 1011.9
20260508172042 73 281 3.0 7.0 0.00 0.00 0.00 19 1012.0
20260508171542 72 267 2.0 9.0 0.00 0.00 0.00 19 1012.1
20260508171045 71 293 3.0 12.0 0.00 0.00 0.00 19 1012.1
20260508170540 71 318 4.0 8.0 0.00 0.00 0.00 20 1012.1
20260508170040 71 269 3.0 7.0 0.00 0.00 0.00 20 1012.2
20260508165539 70 199 2.0 9.0 0.00 0.00 0.00 21 1012.2
20260508165040 70 247 4.0 10.0 0.00 0.00 0.00 21 1012.2
20260508164545 70 285 3.0 9.0 0.00 0.00 0.00 21 1012.2
20260508164038 69 295 5.0 9.0 0.00 0.00 0.00 21 1012.2
20260508163539 69 254 4.0 10.0 0.00 0.00 0.00 21 1012.2
20260508163105 69 5 2.0 10.0 0.00 0.00 0.00 25 1012.3
20260508162538 69 273 5.0 9.0 0.00 0.00 0.00 24 1012.4
20260508162039 70 327 4.0 8.0 0.00 0.00 0.00 23 1012.3
20260508161539 70 311 3.0 8.0 0.00 0.00 0.00 23 1012.4
20260508161039 69 360 4.0 8.0 0.00 0.00 0.00 23 1012.4
20260508160536 69 279 3.0 8.0 0.00 0.00 0.00 24 1012.4
20260508160037 69 279 3.0 8.0 0.00 0.00 0.00 24 1012.5
20260508155534 68 327 4.0 9.0 0.00 0.00 0.00 24 1012.5
20260508155035 67 295 4.0 10.0 0.00 0.00 0.00 27 1012.7
20260508154532 66 348 3.0 10.0 0.00 0.00 0.00 25 1012.6
20260508154031 66 242 4.0 9.0 0.00 0.00 0.00 22 1012.7
20260508153532 66 270 5.0 8.0 0.00 0.00 0.00 23 1012.6
20260508153033 65 252 4.0 9.0 0.00 0.00 0.00 22 1012.6
20260508152530 65 236 5.0 9.0 0.00 0.00 0.00 21 1012.6
20260508152031 64 219 4.0 10.0 0.00 0.00 0.00 22 1012.6
20260508151536 64 256 5.0 11.0 0.00 0.00 0.00 22 1012.5
20260508151034 63 236 6.0 11.0 0.00 0.00 0.00 22 1012.4
20260508150530 63 244 6.0 13.0 0.00 0.00 0.00 23 1012.5
20260508150032 62 226 7.0 14.0 0.00 0.00 0.00 23 1012.5
20260508145530 62 242 8.0 14.0 0.00 0.00 0.00 24 1012.5
20260508145029 62 265 9.0 14.0 0.00 0.00 0.00 24 1012.6
20260508144535 61 236 8.0 15.0 0.00 0.00 0.00 24 1012.6
20260508144028 61 240 9.0 15.0 0.00 0.00 0.00 25 1012.6
20260508143528 61 261 8.0 14.0 0.00 0.00 0.00 25 1012.4
20260508143027 60 256 7.0 14.0 0.00 0.00 0.00 25 1012.5
20260508142527 60 231 5.0 11.0 0.00 0.00 0.00 26 1012.4
20260508142026 60 249 4.0 10.0 0.00 0.00 0.00 26 1012.3
20260508141526 60 188 5.0 10.0 0.00 0.00 0.00 26 1012.4
20260508141026 59 258 4.0 8.0 0.00 0.00 0.00 26 1012.3
20260508140525 59 206 4.0 10.0 0.00 0.00 0.00 26 1012.3
20260508140030 59 232 5.0 10.0 0.00 0.00 0.00 26 1012.3
20260508135527 59 238 4.0 9.0 0.00 0.00 0.00 26 1012.3
20260508135024 59 232 4.0 11.0 0.00 0.00 0.00 26 1012.2
20260508134525 59 271 6.0 11.0 0.00 0.00 0.00 26 1012.2
20260508134022 60 234 5.0 10.0 0.00 0.00 0.00 27 1012.1
20260508133523 59 240 4.0 10.0 0.00 0.00 0.00 28 1012.0
20260508133021 59 261 3.0 8.0 0.00 0.00 0.00 29 1012.0
20260508132520 59 263 5.0 9.0 0.00 0.00 0.00 29 1012.0
20260508132020 59 221 5.0 9.0 0.00 0.00 0.00 30 1011.9
20260508131519 59 212 5.0 8.0 0.00 0.00 0.00 30 1011.8
20260508131019 59 211 3.0 10.0 0.00 0.00 0.00 28 1011.7
20260508130516 59 188 5.0 10.0 0.00 0.00 0.00 26 1011.7
20260508130016 59 230 5.0 14.0 0.00 0.00 0.00 25 1011.6
20260508125516 59 244 5.0 16.0 0.00 0.00 0.00 24 1011.5
20260508125016 59 223 8.0 16.0 0.00 0.00 0.00 24 1011.5
20260508124515 59 227 11.0 19.0 0.00 0.00 0.00 24 1011.6
20260508124014 59 259 10.0 18.0 0.00 0.00 0.00 25 1011.5
20260508123513 59 232 11.0 18.0 0.00 0.00 0.00 24 1011.4
20260508123012 59 241 9.0 14.0 0.00 0.00 0.00 25 1011.3
20260508122511 59 246 8.0 13.0 0.00 0.00 0.00 25 1011.2
20260508122009 59 261 9.0 14.0 0.00 0.00 0.00 24 1011.1
20260508121511 60 260 8.0 16.0 0.00 0.00 0.00 23 1011.0
20260508121008 59 267 9.0 16.0 0.00 0.00 0.00 23 1011.0
20260508120509 60 265 6.0 13.0 0.00 0.00 0.00 23 1011.0
20260508120007 60 284 9.0 14.0 0.00 0.00 0.00 23 1011.0
20260508115510 60 270 9.0 15.0 0.00 0.00 0.00 23 1011.0
20260508115004 61 262 10.0 14.0 0.00 0.00 0.00 23 1011.0
20260508114504 61 264 7.0 12.0 0.00 0.00 0.00 23 1011.0
20260508114003 61 243 5.0 14.0 0.00 0.00 0.00 23 1011.0
20260508113503 61 233 9.0 14.0 0.00 0.00 0.00 22 1010.9
20260508113002 61 261 7.0 13.0 0.00 0.00 0.00 23 1011.0
20260508112501 61 240 6.0 13.0 0.00 0.00 0.00 23 1011.0
20260508112100 61 226 5.0 10.0 0.00 0.00 0.00 23 1011.0
20260508111600 62 245 5.0 16.0 0.00 0.00 0.00 23 1010.9
20260508111100 62 231 4.0 16.0 0.00 0.00 0.00 23 1010.9
20260508110559 62 244 6.0 16.0 0.00 0.00 0.00 24 1010.9
20260508110130 62 241 8.0 16.0 0.00 0.00 0.00 24 1010.9
20260508105558 62 211 7.0 15.0 0.00 0.00 0.00 24 1010.8
20260508105057 62 245 9.0 15.0 0.00 0.00 0.00 23 1010.9
20260508104603 62 256 8.0 16.0 0.00 0.00 0.00 24 1010.9
20260508104055 62 273 10.0 15.0 0.00 0.00 0.00 24 1010.8
20260508103554 62 270 7.0 18.0 0.00 0.00 0.00 24 1010.7
20260508103054 63 272 11.0 19.0 0.00 0.00 0.00 23 1010.6
20260508102551 63 256 11.0 21.0 0.00 0.00 0.00 23 1010.5
20260508102052 63 271 11.0 21.0 0.00 0.00 0.00 23 1010.4
20260508101554 63 270 10.0 25.0 0.00 0.00 0.00 22 1010.4
20260508101049 63 269 10.0 25.0 0.00 0.00 0.00 22 1010.3
20260508100548 64 277 9.0 17.0 0.00 0.00 0.00 22 1010.2
20260508100047 64 269 10.0 19.0 0.00 0.00 0.00 22 1010.2
20260508095550 64 289 12.0 19.0 0.00 0.00 0.00 22 1010.1
20260508095050 64 293 10.0 17.0 0.00 0.00 0.00 22 1010.1
20260508094553 64 202 10.0 18.0 0.00 0.00 0.00 22 1010.1
20260508094045 65 245 11.0 18.0 0.00 0.00 0.00 22 1010.1
20260508093547 65 254 9.0 21.0 0.00 0.00 0.00 22 1010.0
20260508093055 65 232 12.0 22.0 0.00 0.00 0.00 22 1010.0
20260508092544 65 226 11.0 22.0 0.00 0.00 0.00 22 1010.0
20260508092043 65 258 9.0 21.0 0.00 0.00 0.00 23 1010.1
20260508091542 65 269 13.0 21.0 0.00 0.00 0.00 23 1009.9
20260508091042 65 286 12.0 19.0 0.00 0.00 0.00 23 1010.0
20260508090542 65 214 9.0 22.0 0.00 0.00 0.00 23 1010.1
20260508085539 65 246 9.0 20.0 0.00 0.00 0.00 23 1010.0
20260508085038 65 222 9.0 20.0 0.00 0.00 0.00 23 1010.0
20260508084538 65 234 13.0 19.0 0.00 0.00 0.00 23 1010.0
20260508084037 65 234 10.0 18.0 0.00 0.00 0.00 23 1010.1
20260508083541 66 207 9.0 18.0 0.00 0.00 0.00 22 1010.2
20260508083036 66 254 10.0 17.0 0.00 0.00 0.00 22 1010.2
20260508082535 66 254 11.0 18.0 0.00 0.00 0.00 23 1010.2
20260508082035 66 234 6.0 18.0 0.00 0.00 0.00 23 1010.3
20260508081534 66 258 11.0 18.0 0.00 0.00 0.00 24 1010.3
20260508081032 66 211 8.0 18.0 0.00 0.00 0.00 25 1010.3
20260508080532 66 263 11.0 18.0 0.00 0.00 0.00 24 1010.4
20260508080038 66 258 10.0 18.0 0.00 0.00 0.00 24 1010.3
20260508075531 66 257 10.0 19.0 0.00 0.00 0.00 24 1010.2
20260508075033 66 237 11.0 21.0 0.00 0.00 0.00 24 1010.3
20260508074536 66 257 12.0 21.0 0.00 0.00 0.00 24 1010.3
20260508074029 66 221 7.0 17.0 0.00 0.00 0.00 24 1010.3
20260508073529 66 295 9.0 23.0 0.00 0.00 0.00 24 1010.3
20260508073030 66 185 10.0 23.0 0.00 0.00 0.00 24 1010.3
20260508072527 66 246 11.0 20.0 0.00 0.00 0.00 24 1010.3
20260508072025 66 269 11.0 19.0 0.00 0.00 0.00 25 1010.3
20260508071528 66 246 8.0 19.0 0.00 0.00 0.00 25 1010.3
20260508071026 67 263 8.0 23.0 0.00 0.00 0.00 25 1010.3
20260508070523 66 211 12.0 23.0 0.00 0.00 0.00 25 1010.3
20260508070022 66 239 7.0 18.0 0.00 0.00 0.00 25 1010.4
20260508065521 67 254 12.0 18.0 0.00 0.00 0.00 25 1010.3
20260508065021 67 238 9.0 15.0 0.00 0.00 0.00 25 1010.4
20260508064522 67 234 7.0 21.0 0.00 0.00 0.00 25 1010.3
20260508064021 67 239 10.0 20.0 0.00 0.00 0.00 25 1010.3
20260508063526 67 242 8.0 20.0 0.00 0.00 0.00 25 1010.2
20260508063020 67 230 11.0 19.0 0.00 0.00 0.00 24 1010.2